KF5JED-13 Weather Reports


Display with metric or nautical units.
time (UTC)temp
F
wind
direction
speed
MPH
gust
MPH
rain 1hr
in
rain 24hr
in
rain mn
in
humidity
%
barometer
mb
20260904093716 73 138 6.0 12.0 0.00 0.00 0.00 69 1014.2
20260904093215 73 138 9.0 12.0 0.00 0.00 0.00 68 1014.1
20260904092711 73 136 7.0 11.0 0.00 0.00 0.00 68 1014.1
20260904092207 73 126 8.0 12.0 0.00 0.00 0.00 68 1014.1
20260904091703 73 131 9.0 11.0 0.00 0.00 0.00 68 1014.3
20260904091158 73 134 6.0 11.0 0.00 0.00 0.00 67 1013.9
20260904090654 73 140 7.0 11.0 0.00 0.00 0.00 66 1014.5
20260904090149 73 148 7.0 12.0 0.00 0.00 0.00 67 1014.5
20260904085644 73 150 9.0 12.0 0.00 0.00 0.00 67 1014.1
20260904085143 73 151 7.0 10.0 0.00 0.00 0.00 67 1014.1
20260904084639 73 148 6.0 7.0 0.00 0.00 0.00 68 1014.3
20260904084135 73 156 7.0 9.0 0.00 0.00 0.00 67 1014.5
20260904083631 74 147 6.0 12.0 0.00 0.00 0.00 66 1014.5
20260904083127 74 160 7.0 10.0 0.00 0.00 0.00 65 1014.6
20260904082621 74 144 9.0 12.0 0.00 0.00 0.00 64 1014.6
20260904082117 74 148 8.0 13.0 0.00 0.00 0.00 64 1014.5
20260904081612 74 153 6.0 12.0 0.00 0.00 0.00 64 1014.5
20260904081108 74 153 6.0 10.0 0.00 0.00 0.00 64 1014.3
20260904080603 74 148 8.0 12.0 0.00 0.00 0.00 64 1014.6
20260904080059 74 151 11.0 13.0 0.00 0.00 0.00 63 1014.3
20260904075555 75 148 7.0 11.0 0.00 0.00 0.00 63 1014.2
20260904075050 75 145 9.0 12.0 0.00 0.00 0.00 62 1014.5
20260904074548 75 140 7.0 13.0 0.00 0.00 0.00 61 1014.6
20260904074038 75 156 6.0 12.0 0.00 0.00 0.00 62 1014.3
20260904073533 76 139 7.0 10.0 0.00 0.00 0.00 62 1014.2
20260904073030 76 149 9.0 11.0 0.00 0.00 0.00 61 1014.5
20260904072525 76 159 9.0 13.0 0.00 0.00 0.00 62 1014.3
20260904072020 75 154 12.0 14.0 0.00 0.00 0.00 62 1014.5
20260904071515 75 159 9.0 14.0 0.00 0.00 0.00 63 1014.3
20260904071010 75 156 8.0 13.0 0.00 0.00 0.00 64 1014.6
20260904070509 74 158 9.0 11.0 0.00 0.00 0.00 65 1014.7
20260904070004 73 162 8.0 10.0 0.00 0.00 0.00 68 1014.6
20260904065459 72 157 5.0 8.0 0.00 0.00 0.00 71 1014.6
20260904064955 72 155 6.0 8.0 0.00 0.00 0.00 72 1014.6
20260904064451 72 169 6.0 7.0 0.00 0.00 0.00 70 1014.7
20260904063945 73 168 6.0 9.0 0.00 0.00 0.00 69 1014.8
20260904063442 73 153 5.0 11.0 0.00 0.00 0.00 68 1014.8
20260904062937 74 149 6.0 11.0 0.00 0.00 0.00 67 1014.7
20260904062433 73 157 7.0 11.0 0.00 0.00 0.00 68 1014.8
20260904061928 74 156 12.0 13.0 0.00 0.00 0.00 67 1014.8
20260904061425 73 157 8.0 12.0 0.00 0.00 0.00 68 1015.0
20260904060921 73 149 7.0 12.0 0.00 0.00 0.00 69 1015.0
20260904060416 73 159 10.0 12.0 0.00 0.00 0.00 68 1014.9
20260904055912 73 153 10.0 13.0 0.00 0.00 0.00 68 1014.9
20260904055407 73 160 8.0 12.0 0.00 0.00 0.00 69 1015.0
20260904054903 73 140 7.0 12.0 0.00 0.00 0.00 69 1014.9
20260904054358 72 154 6.0 11.0 0.00 0.00 0.00 71 1014.9
20260904053854 73 160 9.0 13.0 0.00 0.00 0.00 71 1015.1
20260904053353 73 152 8.0 12.0 0.00 0.00 0.00 71 1015.0
20260904052849 73 157 10.0 12.0 0.00 0.00 0.00 71 1015.1
20260904052345 73 160 8.0 13.0 0.00 0.00 0.00 70 1015.1
20260904051841 74 155 9.0 15.0 0.00 0.00 0.00 68 1015.1
20260904051337 74 157 6.0 10.0 0.00 0.00 0.00 68 1015.1
20260904050836 74 151 5.0 11.0 0.00 0.00 0.00 67 1015.0
20260904050333 74 140 7.0 10.0 0.00 0.00 0.00 67 1014.9
20260904045827 74 128 7.0 11.0 0.00 0.26 0.26 67 1014.8
20260904045322 74 128 13.0 15.0 0.00 0.26 0.26 66 1014.9
20260904044817 73 132 8.0 12.0 0.00 0.26 0.26 66 1015.1
20260904044314 73 140 9.0 13.0 0.00 0.26 0.26 66 1014.8
20260904043809 74 144 9.0 11.0 0.00 0.26 0.26 64 1014.8
20260904043306 75 145 10.0 15.0 0.00 0.26 0.26 62 1015.0
20260904042801 75 135 6.0 14.0 0.00 0.26 0.26 62 1015.2
20260904042257 75 127 11.0 15.0 0.00 0.26 0.26 61 1015.0
20260904041756 75 143 9.0 14.0 0.00 0.26 0.26 61 1015.2
20260904041253 76 121 7.0 14.0 0.00 0.26 0.26 59 1015.0
20260904040748 76 128 15.0 18.0 0.00 0.26 0.26 57 1015.0
20260904040244 75 127 4.0 13.0 0.00 0.26 0.26 60 1015.0
20260904035740 76 95 3.0 9.0 0.00 0.26 0.26 60 1015.2
20260904035235 76 144 7.0 11.0 0.00 0.26 0.26 59 1014.8
20260904034734 75 116 6.0 13.0 0.00 0.26 0.26 61 1015.3
20260904034230 76 131 11.0 13.0 0.00 0.26 0.26 61 1015.1
20260904033725 75 118 6.0 13.0 0.00 0.26 0.26 62 1015.2
20260904033222 75 127 5.0 8.0 0.00 0.26 0.26 62 1015.0
20260904032718 75 106 5.0 8.0 0.00 0.26 0.26 63 1015.1
20260904032217 75 98 4.0 7.0 0.00 0.26 0.26 63 1014.9
20260904031712 74 108 3.0 8.0 0.00 0.26 0.26 65 1015.0
20260904031207 74 109 7.0 9.0 0.00 0.26 0.26 66 1015.0
20260904030703 75 88 5.0 8.0 0.00 0.26 0.26 63 1014.9
20260904030158 76 106 7.0 12.0 0.00 0.26 0.26 61 1014.8
20260904025655 77 113 9.0 14.0 0.00 0.26 0.26 59 1014.7
20260904025149 77 129 8.0 15.0 0.00 0.26 0.26 58 1014.3
20260904024645 77 125 8.0 14.0 0.00 0.26 0.26 58 1014.5
20260904024140 78 141 9.0 15.0 0.00 0.26 0.26 56 1014.5
20260904023636 77 137 14.0 16.0 0.00 0.26 0.26 58 1014.5
20260904023131 79 131 11.0 15.0 0.00 0.26 0.26 54 1014.2
20260904022631 79 144 9.0 17.0 0.00 0.26 0.26 54 1014.3
20260904022128 79 146 8.0 13.0 0.00 0.26 0.26 53 1014.0
20260904021624 79 136 12.0 15.0 0.00 0.26 0.26 53 1014.2
20260904021118 78 139 6.0 13.0 0.00 0.26 0.26 54 1014.2
20260904020614 78 128 9.0 13.0 0.00 0.26 0.26 55 1014.3
20260904015557 77 116 5.0 10.0 0.00 0.26 0.26 58 1014.2
20260904015056 78 126 8.0 12.0 0.00 0.26 0.26 56 1014.1
20260904014555 79 97 4.0 12.0 0.00 0.26 0.26 55 1014.0
20260904014051 80 87 7.0 14.0 0.00 0.26 0.26 54 1013.8
20260904013548 80 123 10.0 15.0 0.00 0.26 0.26 54 1013.8
20260904013039 80 133 14.0 22.0 0.00 0.26 0.26 53 1013.9
20260904012538 82 114 6.0 13.0 0.00 0.26 0.26 49 1013.9
20260904012038 81 138 11.0 19.0 0.00 0.26 0.26 49 1013.7
20260904011532 78 93 4.0 12.0 0.00 0.26 0.26 60 1014.1
20260904011027 80 118 14.0 26.0 0.00 0.26 0.26 54 1014.0
20260904010524 78 143 17.0 25.0 0.00 0.26 0.26 62 1013.9
20260904010019 78 149 15.0 23.0 0.00 0.26 0.26 57 1014.0
20260904005514 81 144 15.0 20.0 0.00 0.26 0.26 50 1013.9
20260904005009 79 141 4.0 9.0 0.00 0.26 0.26 56 1014.1
20260904004504 78 140 5.0 11.0 0.00 0.26 0.26 58 1014.2
20260904003959 78 127 7.0 14.0 0.00 0.26 0.26 57 1014.3
20260904003455 78 136 13.0 16.0 0.00 0.26 0.26 58 1014.7
20260904002950 77 97 10.0 11.0 0.00 0.26 0.26 67 1014.7
20260904002446 77 137 9.0 19.0 0.00 0.26 0.26 68 1015.0
20260904001944 76 166 14.0 17.0 0.00 0.26 0.26 71 1015.3
20260904001441 78 150 12.0 15.0 0.00 0.26 0.26 62 1015.0
20260904000935 79 148 6.0 11.0 0.00 0.26 0.26 61 1015.1
20260904000434 78 148 9.0 14.0 0.00 0.26 0.26 63 1015.2
20260903235930 78 147 10.0 12.0 0.00 0.26 0.26 59 1014.9
20260903235426 79 170 10.0 16.0 0.00 0.26 0.26 59 1014.9
20260903234920 80 157 10.0 16.0 0.00 0.26 0.26 57 1014.6
20260903234416 79 94 9.0 10.0 0.00 0.26 0.26 56 1013.9
20260903233912 78 104 8.0 13.0 0.00 0.26 0.26 59 1013.8
20260903233408 78 79 11.0 15.0 0.00 0.26 0.26 58 1013.6
20260903232902 78 82 11.0 13.0 0.00 0.26 0.26 63 1013.6
20260903232357 80 80 9.0 16.0 0.00 0.26 0.26 56 1013.6
20260903231856 80 112 12.0 16.0 0.00 0.26 0.26 59 1013.9
20260903231351 80 138 12.0 19.0 0.00 0.26 0.26 57 1014.0
20260903230847 81 142 10.0 17.0 0.00 0.26 0.26 57 1013.6
20260903230342 85 157 14.0 18.0 0.00 0.26 0.26 50 1013.7
20260903225838 86 148 7.0 9.0 0.00 0.26 0.26 46 1013.6
20260903225334 86 101 4.0 9.0 0.00 0.26 0.26 43 1013.7
20260903224830 85 102 7.0 11.0 0.00 0.26 0.26 47 1013.3
20260903224326 83 130 4.0 7.0 0.00 0.26 0.26 51 1013.8
20260903223822 83 70 8.0 12.0 0.00 0.26 0.26 49 1013.6
20260903223320 84 76 9.0 14.0 0.00 0.26 0.26 48 1013.8
20260903222815 80 101 6.0 13.0 0.00 0.26 0.26 55 1014.1
20260903222314 76 89 8.0 9.0 0.02 0.26 0.26 69 1014.1
20260903221809 75 354 6.0 11.0 0.61 0.26 0.26 68 1014.0
20260903221308 74 62 11.0 25.0 1.21 0.25 0.25 70 1013.9
20260903220806 77 127 6.0 15.0 0.92 0.15 0.15 65 1015.0
20260903220301 78 248 19.0 25.0 0.31 0.05 0.05 84 1013.8
20260903215753 92 284 10.0 17.0 0.00 0.00 0.00 34 1013.6
20260903215250 93 339 7.0 17.0 0.00 0.00 0.00 31 1013.1
20260903214747 93 328 9.0 16.0 0.00 0.00 0.00 31 1013.3
20260903214239 94 301 8.0 15.0 0.00 0.00 0.00 29 1013.2
20260903213732 94 304 6.0 13.0 0.00 0.00 0.00 29 1013.1
20260903213228 94 246 9.0 14.0 0.00 0.00 0.00 29 1013.2
20260903212724 98 210 10.0 12.0 0.00 0.00 0.00 28 1013.2
20260903212220 99 189 10.0 14.0 0.00 0.00 0.00 27 1012.9
20260903211713 101 224 9.0 17.0 0.00 0.00 0.00 25 1013.1
20260903211210 101 183 4.0 8.0 0.00 0.00 0.00 25 1013.1
20260903210706 101 311 4.0 5.0 0.00 0.00 0.00 25 1013.0
20260903210202 100 245 4.0 10.0 0.00 0.00 0.00 25 1013.3
20260903205701 100 209 10.0 16.0 0.00 0.00 0.00 25 1013.3
20260903205200 101 212 12.0 18.0 0.00 0.00 0.00 26 1013.5
20260903204656 101 251 2.0 6.0 0.00 0.00 0.00 25 1013.7
20260903204152 101 244 4.0 7.0 0.00 0.00 0.00 25 1013.6
20260903203647 100 142 5.0 12.0 0.00 0.00 0.00 26 1013.7
20260903203142 101 186 5.0 9.0 0.00 0.00 0.00 25 1013.9
20260903202637 101 205 7.0 8.0 0.00 0.00 0.00 25 1013.7
20260903202132 102 186 8.0 13.0 0.00 0.00 0.00 25 1013.9
20260903201626 101 169 7.0 14.0 0.00 0.00 0.00 26 1014.0
20260903201126 100 213 6.0 11.0 0.00 0.00 0.00 26 1013.8
20260903200621 99 217 16.0 19.0 0.00 0.00 0.00 26 1013.9
20260903200116 99 207 10.0 15.0 0.00 0.00 0.00 27 1014.2
20260903195612 101 163 5.0 10.0 0.00 0.00 0.00 25 1014.1
20260903195108 99 151 4.0 6.0 0.00 0.00 0.00 27 1014.2
20260903194602 101 163 4.0 11.0 0.00 0.00 0.00 26 1014.3
20260903194057 100 212 10.0 12.0 0.00 0.00 0.00 27 1014.6
20260903193554 99 216 11.0 13.0 0.00 0.00 0.00 27 1014.5
20260903193049 100 175 4.0 6.0 0.00 0.00 0.00 27 1014.5
20260903192545 99 206 10.0 14.0 0.00 0.00 0.00 27 1014.5
20260903192040 99 203 13.0 21.0 0.00 0.00 0.00 27 1014.5
20260903191536 99 147 5.0 10.0 0.00 0.00 0.00 28 1014.6
20260903191030 100 168 2.0 8.0 0.00 0.00 0.00 27 1014.8
20260903190524 98 301 6.0 6.0 0.00 0.00 0.00 29 1014.7
20260903190024 98 259 9.0 17.0 0.00 0.00 0.00 29 1014.9
20260903185519 98 268 4.0 8.0 0.00 0.00 0.00 29 1015.1
20260903185015 98 230 8.0 12.0 0.00 0.00 0.00 29 1015.1
20260903184506 97 246 4.0 9.0 0.00 0.00 0.00 29 1015.3
20260903184005 98 287 4.0 6.0 0.00 0.00 0.00 28 1015.2
20260903183500 98 230 8.0 11.0 0.00 0.00 0.00 28 1015.3
20260903182959 97 235 9.0 12.0 0.00 0.00 0.00 29 1015.5
20260903182458 97 228 7.0 10.0 0.00 0.00 0.00 29 1015.6
20260903181954 97 237 8.0 12.0 0.00 0.00 0.00 30 1015.7
20260903181448 96 238 6.0 15.0 0.00 0.00 0.00 30 1015.8
20260903180947 96 240 12.0 16.0 0.00 0.00 0.00 30 1015.7
20260903180443 96 219 7.0 9.0 0.00 0.00 0.00 31 1015.8
20260903175942 96 214 11.0 18.0 0.00 0.00 0.00 30 1015.8
20260903175437 96 230 6.0 9.0 0.00 0.00 0.00 31 1016.0
20260903174936 96 248 6.0 13.0 0.00 0.00 0.00 31 1016.0
20260903174432 96 239 13.0 14.0 0.00 0.00 0.00 31 1015.9
20260903173931 95 224 13.0 20.0 0.00 0.00 0.00 32 1016.2
20260903173426 95 218 7.0 20.0 0.00 0.00 0.00 32 1016.1
20260903172922 96 216 15.0 18.0 0.00 0.00 0.00 32 1015.9
20260903172416 96 215 11.0 17.0 0.00 0.00 0.00 32 1016.0
20260903171912 95 210 16.0 20.0 0.00 0.00 0.00 33 1016.0
20260903171407 95 209 11.0 19.0 0.00 0.00 0.00 33 1015.9
20260903170901 95 205 7.0 15.0 0.00 0.00 0.00 33 1016.1
20260903170356 95 210 13.0 21.0 0.00 0.00 0.00 33 1016.0
20260903165855 94 229 13.0 18.0 0.00 0.00 0.00 33 1016.1
20260903165349 93 215 17.0 19.0 0.00 0.00 0.00 33 1016.2
20260903164844 93 234 13.0 16.0 0.00 0.00 0.00 33 1016.2
20260903164339 94 221 11.0 17.0 0.00 0.00 0.00 33 1015.9
20260903163838 94 223 12.0 19.0 0.00 0.00 0.00 33 1016.1
20260903163335 93 217 14.0 17.0 0.00 0.00 0.00 33 1016.2
20260903162831 93 216 16.0 19.0 0.00 0.00 0.00 33 1016.1
20260903162327 93 216 17.0 20.0 0.00 0.00 0.00 34 1016.1
20260903161823 92 211 11.0 14.0 0.00 0.00 0.00 35 1016.0
20260903161318 92 211 10.0 14.0 0.00 0.00 0.00 35 1016.0
20260903160814 92 212 14.0 17.0 0.00 0.00 0.00 36 1015.9
20260903160312 91 217 13.0 15.0 0.00 0.00 0.00 37 1016.3
20260903155811 91 227 10.0 13.0 0.00 0.00 0.00 38 1016.2
20260903155307 90 239 11.0 14.0 0.00 0.00 0.00 39 1016.3
20260903154801 89 219 8.0 16.0 0.00 0.00 0.00 40 1016.3
20260903154258 89 239 6.0 16.0 0.00 0.00 0.00 40 1016.1
20260903153753 88 214 13.0 13.0 0.00 0.00 0.00 41 1016.2
20260903153249 87 226 9.0 15.0 0.00 0.00 0.00 43 1016.1
20260903152745 87 213 10.0 15.0 0.00 0.00 0.00 43 1016.2
20260903152241 86 237 8.0 12.0 0.00 0.00 0.00 44 1016.3
20260903151741 85 217 9.0 12.0 0.00 0.00 0.00 45 1016.3
20260903151236 85 213 11.0 12.0 0.00 0.00 0.00 46 1016.2
20260903150731 82 227 6.0 11.0 0.00 0.00 0.00 50 1016.1
20260903150225 82 226 7.0 10.0 0.00 0.00 0.00 50 1016.2
20260903145725 81 217 6.0 11.0 0.00 0.00 0.00 49 1016.2
20260903145221 81 215 9.0 13.0 0.00 0.00 0.00 49 1016.3
20260903144719 80 224 8.0 12.0 0.00 0.00 0.00 50 1016.5
20260903144215 80 211 12.0 13.0 0.00 0.00 0.00 51 1016.3
20260903143711 79 198 8.0 12.0 0.00 0.00 0.00 52 1016.3
20260903143207 78 216 10.0 14.0 0.00 0.00 0.00 52 1016.3
20260903142702 78 200 8.0 10.0 0.00 0.00 0.00 53 1016.3
20260903142159 77 206 8.0 10.0 0.00 0.00 0.00 53 1016.3
20260903141654 77 208 6.0 12.0 0.00 0.00 0.00 53 1016.3
20260903141149 76 204 10.0 10.0 0.00 0.00 0.00 54 1016.6
20260903140644 76 212 8.0 9.0 0.00 0.00 0.00 56 1016.6
20260903140140 75 206 5.0 10.0 0.00 0.00 0.00 57 1016.6
20260903135635 75 198 7.0 8.0 0.00 0.00 0.00 57 1016.2
20260903135130 75 197 6.0 10.0 0.00 0.00 0.00 57 1016.3
20260903134628 75 191 9.0 10.0 0.00 0.00 0.00 57 1016.3
20260903134120 75 195 8.0 11.0 0.00 0.00 0.00 56 1016.5
20260903133617 75 189 5.0 11.0 0.00 0.00 0.00 57 1016.2
20260903133113 74 195 5.0 12.0 0.00 0.00 0.00 57 1016.2
20260903132608 73 182 6.0 10.0 0.00 0.00 0.00 58 1016.2
20260903132107 73 203 6.0 9.0 0.00 0.00 0.00 60 1016.3
20260903131602 72 188 6.0 8.0 0.00 0.00 0.00 60 1016.2
20260903131101 71 170 4.0 8.0 0.00 0.00 0.00 62 1016.1
20260903130556 70 178 6.0 7.0 0.00 0.00 0.00 64 1015.9
20260903130051 69 178 6.0 7.0 0.00 0.00 0.00 65 1016.1
20260903125549 69 185 4.0 8.0 0.00 0.00 0.00 66 1016.1
20260903125044 69 204 4.0 6.0 0.00 0.00 0.00 66 1016.0
20260903124539 68 198 4.0 6.0 0.00 0.00 0.00 66 1015.7
20260903124038 68 208 6.0 6.0 0.00 0.00 0.00 66 1015.7
20260903123538 68 207 6.0 7.0 0.00 0.00 0.00 66 1015.9
20260903123037 68 210 5.0 8.0 0.00 0.00 0.00 66 1015.7
20260903122531 68 201 6.0 8.0 0.00 0.00 0.00 65 1015.8
20260903122031 68 204 6.0 8.0 0.00 0.00 0.00 65 1015.6
20260903121526 69 204 4.0 9.0 0.00 0.00 0.00 64 1015.7
20260903121022 68 200 6.0 8.0 0.00 0.00 0.00 65 1015.5
20260903120520 68 190 5.0 8.0 0.00 0.00 0.00 64 1015.5
20260903120015 69 182 8.0 9.0 0.00 0.00 0.00 63 1015.5
20260903115513 70 194 7.0 10.0 0.00 0.00 0.00 61 1015.3
20260903115008 70 198 10.0 11.0 0.00 0.00 0.00 60 1015.6
20260903114504 70 196 6.0 10.0 0.00 0.00 0.00 61 1015.6
20260903113959 68 202 6.0 7.0 0.00 0.00 0.00 62 1015.7
20260903113455 68 180 5.0 7.0 0.00 0.00 0.00 63 1015.5
20260903112950 69 170 6.0 6.0 0.00 0.00 0.00 61 1015.5
20260903112446 69 184 5.0 10.0 0.00 0.00 0.00 61 1015.6
20260903111945 68 178 6.0 6.0 0.00 0.00 0.00 64 1015.6
20260903111444 68 157 4.0 5.0 0.00 0.00 0.00 64 1015.5
20260903110941 68 161 4.0 6.0 0.00 0.00 0.00 63 1015.5
20260903110437 69 187 4.0 6.0 0.00 0.00 0.00 62 1015.3
20260903105932 69 171 6.0 10.0 0.00 0.00 0.00 60 1015.1
20260903105427 69 169 7.0 9.0 0.00 0.00 0.00 61 1015.2
20260903104926 69 183 6.0 9.0 0.00 0.00 0.00 62 1015.2
20260903104425 69 187 4.0 7.0 0.00 0.00 0.00 62 1015.5
20260903103922 69 169 6.0 8.0 0.00 0.00 0.00 62 1015.6
20260903103418 69 186 5.0 8.0 0.00 0.00 0.00 62 1015.7
20260903102913 69 185 8.0 8.0 0.00 0.00 0.00 61 1015.7
20260903102408 69 185 5.0 7.0 0.00 0.00 0.00 61 1015.7
20260903101908 69 189 5.0 7.0 0.00 0.00 0.00 62 1015.8
20260903101402 69 185 4.0 6.0 0.00 0.00 0.00 62 1015.7
20260903100858 69 190 4.0 6.0 0.00 0.00 0.00 63 1015.8
20260903100354 69 190 6.0 6.0 0.00 0.00 0.00 62 1015.8
20260903095850 69 175 5.0 9.0 0.00 0.00 0.00 62 1015.7
20260903095350 69 180 6.0 9.0 0.00 0.00 0.00 61 1015.9
20260903094845 69 161 6.0 7.0 0.00 0.00 0.00 63 1015.6
20260903094340 68 187 4.0 5.0 0.00 0.00 0.00 64 1015.8